Location: DaVinci Observatory
(43.1080°N, 78.6453°W)
Time: 03:20:21
(UTC-05:00)

Vanguard 3 - Visible Passes

Search period start: 17 December 2017 00:00
Search period end: 27 December 2017 00:00
Orbit: 509 x 3263 km, 33.3° (Epoch: 16 December)

Date Brightness Start Highest point End Pass type
(mag) Time Alt. Az. Time Alt. Az. Time Alt. Az.
22 Dec 11.3 07:10:04 10° S 07:16:13 15° SSE 07:21:03 10° SE visible
23 Dec 11.6 05:59:42 10° SSE 06:01:40 10° SSE 06:03:31 10° SE visible
24 Dec 11.1 06:51:18 10° SSW 07:00:20 20° SSE 07:06:52 10° ESE visible
25 Dec 11.4 05:38:19 10° S 05:45:38 15° SSE 05:51:34 10° ESE visible
26 Dec 10.9 06:32:59 10° SSW 06:44:21 26° SSE 06:52:11 10° ESE visible
